TimeEST,TemperatureF,Dew PointF,Humidity,Sea Level PressureIn,VisibilityMPH,Wind Direction,Wind SpeedMPH,Gust SpeedMPH,PrecipitationIn,Events,Conditions,WindDirDegrees,DateUTC
12:51 AM,63.0,57.9,84,29.58,10.0,South,13.8,20.7,N/A,,Overcast,170,2013-12-22 05:51:00
1:51 AM,68.0,55.9,65,29.53,10.0,South,16.1,28.8,N/A,,Overcast,190,2013-12-22 06:51:00
2:51 AM,66.9,59.0,76,29.62,3.0,SW,26.5,47.2,0.04,Rain,Rain,220,2013-12-22 07:51:00
3:51 AM,64.0,57.9,80,29.72,10.0,WSW,10.4,19.6,0.02,Rain,Rain,250,2013-12-22 08:51:00
4:51 AM,62.1,59.0,90,29.76,10.0,SW,8.1,-,0.02,Rain,Light Rain,220,2013-12-22 09:51:00
5:51 AM,61.0,57.9,90,29.76,10.0,SSW,10.4,-,0.01,Rain,Light Rain,210,2013-12-22 10:51:00
6:51 AM,60.1,57.0,90,29.80,9.0,South,9.2,-,0.02,Rain,Light Rain,190,2013-12-22 11:51:00
7:51 AM,60.1,57.0,90,29.79,10.0,South,11.5,23.0,0.06,Rain,Light Rain,180,2013-12-22 12:51:00
8:51 AM,60.1,55.9,86,29.72,10.0,SSE,23.0,35.7,0.04,Rain,Light Rain,160,2013-12-22 13:51:00
9:51 AM,61.0,54.0,78,29.75,10.0,SSW,12.7,21.9,0.01,Rain,Light Rain,200,2013-12-22 14:51:00
10:51 AM,61.0,53.1,75,29.78,10.0,SSW,16.1,25.3,0.00,,Overcast,210,2013-12-22 15:51:00
11:51 AM,62.1,53.1,72,29.78,10.0,SSW,19.6,27.6,N/A,,Overcast,210,2013-12-22 16:51:00
12:26 PM,62.6,53.6,72,29.76,10.0,SSW,20.7,27.6,N/A,,Overcast,210,2013-12-22 17:26:00
12:51 PM,61.0,54.0,78,29.77,10.0,SW,16.1,29.9,N/A,,Overcast,220,2013-12-22 17:51:00
1:51 PM,61.0,53.1,75,29.79,10.0,SW,16.1,24.2,0.00,,Light Drizzle,220,2013-12-22 18:51:00
2:51 PM,61.0,53.1,75,29.80,10.0,SSW,15.0,26.5,0.00,,Overcast,210,2013-12-22 19:51:00
3:27 PM,60.8,53.6,77,29.80,10.0,WSW,13.8,28.8,0.00,,Overcast,240,2013-12-22 20:27:00
3:51 PM,60.1,50.0,69,29.82,10.0,SW,13.8,25.3,0.00,,Overcast,230,2013-12-22 20:51:00
4:51 PM,59.0,48.9,69,29.85,10.0,SW,13.8,21.9,N/A,,Overcast,220,2013-12-22 21:51:00
5:51 PM,59.0,48.0,67,29.88,10.0,SW,12.7,21.9,N/A,,Overcast,230,2013-12-22 22:51:00
6:51 PM,57.9,46.9,67,29.90,10.0,WSW,8.1,-,N/A,,Overcast,240,2013-12-22 23:51:00
7:51 PM,57.0,46.0,67,29.91,10.0,SW,10.4,-,N/A,,Overcast,230,2013-12-23 00:51:00
8:51 PM,55.9,46.0,69,29.94,10.0,WSW,6.9,-,N/A,,Overcast,240,2013-12-23 01:51:00
9:51 PM,55.0,46.0,72,29.95,10.0,WSW,5.8,-,N/A,,Overcast,250,2013-12-23 02:51:00
10:51 PM,54.0,45.0,72,29.96,10.0,West,5.8,-,N/A,,Overcast,270,2013-12-23 03:51:00
11:51 PM,52.0,44.1,74,29.97,10.0,West,6.9,-,N/A,,Overcast,270,2013-12-23 04:51:00